Content
SEND FEEDBACK

Daily
Averages
Monthly
Summary
Bosnia and Herzegovina

ILIDZA, BOSNIA AND HERZEGOVINA


Home > Europe > Bosnia and Herzegovina
Elevation: 511 meters     Latitude: 43 49N     Longitude: 018 19E

WEATHER
 
SELECT A DAY
Number of Records: 178,139;   Date Range: 2/20/97 - 9/21/14
 
SHARE

PRINT THIS DATA

[ ← Previous Day ]
WEATHER ALMANAC - 13 MAY, 2014
[ Next Day → ]
[ °F ]   °C
Weather ElementAverageHighLow
Temperature11 °C16 °C (11:30 am)7 °C (1:00 am)
Dewpoint9.9 °C12 °C (2:00 pm)6 °C (2:00 am)
Humidity93.6 %100 % (1:00 am)68 % (12:00 pm)
Barometer1013.2 hPa1015.2 hPa (1:00 am)1011.2 hPa (11:00 pm)
Wind Speed3.1 km/h18.5 km/h (12:30 pm)
Weather ElementAverage
Visibility5.8 km
Wind DirectionNNE (30.8 °)

Weather ElementTotal
Precipitation---
Heating Degree Days6.8 (Base 18.3)
Growing Degree Days1.5 (Base 10)
Averaged from 37 records on 13 May, 2014
WEATHER CONDITIONS BREAKOUT
WIND DIRECTION BREAKOUT
WEATHER BY HOUR - 13 MAY, 2014
[ °F ]   °C
Local TimeTemperatureDewpointHumidityBarometerVisibilityWind DirectionWind SpeedGust SpeedPrecipitationEventsConditions
1:00 AM7 °C7 °C100 %1015.2 hPaVariable1.9 km/hClear
2:00 AM7 °C6 °C93 %1014.2 hPaVariable1.9 km/hClear
3:00 AM8 °C7 °C93 %1014.2 hPa10 kmCalmPartly Cloudy
4:00 AM8 °C8 °C100 %1014.2 hPa10 kmVariable1.9 km/hScattered Clouds
5:00 AM8 °C8 °C100 %1014.2 hPa10 kmCalmScattered Clouds
5:30 AM8 °C8 °C100 %1014.2 hPa4 kmCalmScattered Clouds
6:00 AM8 °C8 °C100 %1014.2 hPa3.1 kmVariable1.9 km/hMostly Cloudy
6:30 AM8 °C8 °C100 %1014.2 hPa2.6 kmVariable1.9 km/hOvercast
7:00 AM8 °C8 °C100 %1014.2 hPa1.8 kmVariable1.9 km/hOvercast
7:30 AM9 °C9 °C100 %1014.2 hPa1.9 kmCalmOvercast
8:00 AM9 °C9 °C100 %1013.2 hPa2.6 kmVariable1.9 km/hMostly Cloudy
8:30 AM10 °C9 °C94 %1013.2 hPa2.6 kmVariable1.9 km/hMostly Cloudy
9:00 AM10 °C9 °C94 %1013.2 hPa3.5 kmVariable3.7 km/hScattered Clouds
9:30 AM11 °C10 °C94 %1013.2 hPa6 kmVariable1.9 km/hPartly Cloudy
10:00 AM12 °C10 °C88 %1013.2 hPa8 kmVariable3.7 km/hPartly Cloudy
10:30 AM12 °C10 °C88 %1012.2 hPa10 kmVariable3.7 km/hPartly Cloudy
11:00 AM14 °C10 °C77 %1012.2 hPa10 kmVariable3.7 km/hScattered Clouds
11:30 AM16 °C11 °C72 %1012.2 hPa10 kmVariable3.7 km/hScattered Clouds
12:00 PM16 °C10 °C68 %1012.2 hPa10 kmSSW (210°)5.6 km/hMostly Cloudy
12:30 PM14 °C10 °C77 %1013.2 hPa10 kmNNW (330°)18.5 km/hRainLight Rain Showers
1:00 PM14 °C10 °C77 %1013.2 hPa8 kmNW (320°)9.3 km/hRainLight Rain
1:30 PM14 °C10 °C77 %1013.2 hPa6 kmVariable3.7 km/hRain-ThunderstormThunderstorms and Rain
2:00 PM13 °C12 °C94 %1013.2 hPa6.9 kmVariable1.9 km/hRainLight Rain
3:00 PM13 °C12 °C94 %1012.2 hPa6 kmVariable3.7 km/hRainRain
3:30 PM13 °C12 °C94 %1012.2 hPa6.9 kmVariable3.7 km/hRainRain
4:00 PM13 °C12 °C94 %1012.2 hPa5 kmWest (280°)5.6 km/hRainRain
6:00 PM12 °C12 °C100 %1012.2 hPa3.1 kmVariable3.7 km/hRainRain
6:30 PM12 °C12 °C100 %1013.2 hPa2.6 kmVariable1.9 km/hRainRain
7:00 PM12 °C11 °C94 %1013.2 hPa3.1 kmVariable3.7 km/hRainRain
7:30 PM11 °C11 °C100 %1012.2 hPa4 kmVariable1.9 km/hRainRain
8:00 PM11 °C11 °C100 %1012.2 hPa8 kmCalmRainRain
8:30 PM11 °C11 °C100 %1012.2 hPa5 kmVariable1.9 km/hRainRain
9:00 PM11 °C11 °C100 %1012.2 hPa5 kmVariable1.9 km/hRainRain
9:30 PM11 °C11 °C100 %1012.2 hPa4 kmVariable3.7 km/hRainRain
10:00 PM11 °C11 °C100 %1012.2 hPa4 kmVariable1.9 km/hRainRain
10:30 PM11 °C11 °C100 %1012.2 hPa4 kmVariable1.9 km/hRainRain
11:00 PM11 °C11 °C100 %1011.2 hPa4 kmVariable1.9 km/hRainLight Rain
Hourly data recorded from LQSA, located 0 kilometers away from Ilidza, Bosnia and Herzegovina







STORIES FROM OUR PARTNERS